| time (UTC) | temp F | wind direction | speed MPH | gust MPH | rain 1hr in | rain 24hr in | rain mn in | humidity % | barometer mb |
| 20260504184502 | 76 | 117 | 0.0 | 4.0 | 0.00 | 0.00 | 0.00 | 35 | 1008.4 |
| 20260504183048 | 75 | 58 | 0.0 | 4.0 | 0.00 | 0.00 | 0.00 | 37 | 1008.6 |
| 20260504181541 | 74 | 67 | 0.0 | 4.0 | 0.00 | 0.00 | 0.00 | 36 | 1008.9 |
| 20260504180036 | 74 | 36 | 0.0 | 4.0 | 0.00 | 0.00 | 0.00 | 38 | 1009.2 |
| 20260504174533 | 74 | 89 | 0.0 | 1.0 | 0.00 | 0.00 | 0.00 | 37 | 1009.5 |
| 20260504173017 | 73 | 150 | 0.0 | 4.0 | 0.00 | 0.00 | 0.00 | 38 | 1009.7 |
| 20260504171513 | 72 | 117 | 0.0 | 4.0 | 0.00 | 0.00 | 0.00 | 39 | 1009.8 |
| 20260504081542 | 48 | 275 | 0.0 | 0.0 | 0.00 | 0.00 | 0.00 | 73 | 1012.5 |
| 20260504044517 | 47 | 275 | 0.0 | 0.0 | 0.00 | 0.00 | 0.00 | 60 | 1013.1 |
| 20260504043010 | 48 | 275 | 0.0 | 0.0 | 0.00 | 0.00 | 0.00 | 59 | 1013.0 |
| 20260504041551 | 48 | 275 | 0.0 | 0.0 | 0.00 | 0.00 | 0.00 | 58 | 1013.1 |
| 20260504040055 | 48 | 275 | 0.0 | 0.0 | 0.00 | 0.00 | 0.00 | 58 | 1013.0 |
| 20260504034544 | 48 | 275 | 0.0 | 0.0 | 0.00 | 0.00 | 0.00 | 57 | 1013.1 |
| 20260504033021 | 48 | 275 | 0.0 | 0.0 | 0.00 | 0.00 | 0.00 | 58 | 1013.0 |
| 20260504031513 | 49 | 275 | 0.0 | 0.0 | 0.00 | 0.00 | 0.00 | 57 | 1012.8 |
| 20260504030011 | 49 | 275 | 0.0 | 0.0 | 0.00 | 0.00 | 0.00 | 56 | 1012.8 |
| 20260504024505 | 50 | 275 | 0.0 | 0.0 | 0.00 | 0.00 | 0.00 | 56 | 1012.6 |
| 20260504023039 | 50 | 275 | 0.0 | 0.0 | 0.00 | 0.00 | 0.00 | 55 | 1012.6 |
| 20260504021535 | 51 | 275 | 0.0 | 0.0 | 0.00 | 0.00 | 0.00 | 52 | 1012.5 |
| 20260504020030 | 51 | 275 | 0.0 | 0.0 | 0.00 | 0.00 | 0.00 | 50 | 1012.5 |
| 20260504014540 | 52 | 275 | 0.0 | 0.0 | 0.00 | 0.00 | 0.00 | 52 | 1012.3 |
| 20260504013014 | 53 | 275 | 0.0 | 0.0 | 0.00 | 0.00 | 0.00 | 50 | 1012.2 |
| 20260504011511 | 54 | 275 | 0.0 | 0.0 | 0.00 | 0.00 | 0.00 | 47 | 1012.2 |
| 20260504010115 | 54 | 275 | 0.0 | 0.0 | 0.00 | 0.00 | 0.00 | 45 | 1012.1 |
| 20260504004548 | 55 | 275 | 0.0 | 0.0 | 0.00 | 0.00 | 0.00 | 42 | 1012.0 |
| 20260504003043 | 56 | 275 | 0.0 | 0.0 | 0.00 | 0.00 | 0.00 | 40 | 1011.9 |
| 20260504001544 | 57 | 275 | 0.0 | 0.0 | 0.00 | 0.00 | 0.00 | 39 | 1011.9 |
| 20260504000041 | 58 | 275 | 0.0 | 0.0 | 0.00 | 0.00 | 0.00 | 38 | 1011.7 |
| 20260503234524 | 59 | 275 | 0.0 | 0.0 | 0.00 | 0.00 | 0.00 | 38 | 1011.6 |
| 20260503233019 | 60 | 275 | 0.0 | 0.0 | 0.00 | 0.00 | 0.00 | 36 | 1011.5 |
| 20260503231509 | 60 | 275 | 0.0 | 0.0 | 0.00 | 0.00 | 0.00 | 34 | 1011.3 |
| 20260503230100 | 61 | 273 | 0.0 | 2.0 | 0.00 | 0.00 | 0.00 | 33 | 1011.3 |
| 20260503230002 | 61 | 273 | 0.0 | 2.0 | 0.00 | 0.00 | 0.00 | 32 | 1011.3 |
| 20260503224556 | 61 | 111 | 0.0 | 0.0 | 0.00 | 0.00 | 0.00 | 35 | 1011.4 |
| 20260503223046 | 61 | 111 | 0.0 | 0.0 | 0.00 | 0.00 | 0.00 | 34 | 1011.4 |
| 20260503221548 | 61 | 331 | 0.0 | 4.0 | 0.00 | 0.00 | 0.00 | 31 | 1011.4 |
| 20260503220032 | 61 | 325 | 0.0 | 4.0 | 0.00 | 0.00 | 0.00 | 33 | 1011.4 |
| 20260503214524 | 61 | 59 | 0.0 | 4.0 | 0.00 | 0.00 | 0.00 | 32 | 1011.5 |
| 20260503213017 | 62 | 335 | 0.0 | 2.0 | 0.00 | 0.00 | 0.00 | 31 | 1011.7 |
| 20260503211506 | 62 | 287 | 0.0 | 6.0 | 0.00 | 0.00 | 0.00 | 30 | 1011.5 |
| 20260503210100 | 62 | 329 | 0.0 | 4.0 | 0.00 | 0.00 | 0.00 | 33 | 1011.7 |
| 20260503204601 | 62 | 260 | 0.0 | 5.0 | 0.00 | 0.00 | 0.00 | 33 | 1011.8 |
| 20260503203039 | 63 | 282 | 0.0 | 5.0 | 0.00 | 0.00 | 0.00 | 35 | 1011.8 |
| 20260503201539 | 63 | 48 | 0.0 | 1.0 | 0.00 | 0.00 | 0.00 | 38 | 1012.0 |
| 20260503200028 | 62 | 278 | 0.0 | 4.0 | 0.00 | 0.00 | 0.00 | 31 | 1012.4 |
| 20260503194520 | 62 | 297 | 0.0 | 4.0 | 0.00 | 0.00 | 0.00 | 33 | 1012.2 |
| 20260503193014 | 61 | 259 | 1.0 | 4.0 | 0.00 | 0.00 | 0.00 | 34 | 1012.6 |
| 20260503191513 | 61 | 280 | 0.0 | 8.0 | 0.00 | 0.00 | 0.00 | 38 | 1012.9 |
| 20260503190001 | 61 | 306 | 0.0 | 2.0 | 0.00 | 0.00 | 0.00 | 34 | 1012.9 |